COSMOS 2500 (755)

Last updated on Thu Oct 30 2025 00:03:21 GMT+0000 (Coordinated Universal Time)

1 40001U 14032A 25302.16604927 -.00000009 00000+0 00000+0 0 9990 2 40001 65.3675 321.5492 0009201 215.0556 144.9347 2.13105985 88531
UTC large
Height (km)
Speed (km/s)
/
Latitude / Longitude
Inclination (degrees)
Orbital Period (minutes)
Azimuth
Elevation
Range (km)
Doppler Factor

Next 0 passes for location: London (51.5072 / 0.1276)

Sorry there are no passes over London.